Regional Weather Roundup
Issued by NWS Sioux Falls, SD

Home | Current Version | Previous Version | Graphics & Text | Print | Product List | Glossary Off
Versions: 1 2 3 4 5 6 7 8 9 10 11 12 13 14 15 16 17 18 19 20 21 22 23 24 25 26 27 28 29 30 31 32 33 34 35 36 37 38 39 40 41 42 43 44 45 46 47 48 49 50

000
ASUS43 KFSD 300510
RWRFSD

WEATHER ROUNDUP FOR SE SOUTH DAKOTA/SW MINNESOTA/NW IOWA
NATIONAL WEATHER SERVICE SIOUX FALLS SD
1200 AM CDT MON MAY 30 2016

NOTE: "FAIR" INDICATES FEW OR NO CLOUDS BELOW 12,000 FEET WITH NO
SIGNIFICANT WEATHER AND OR OBSTRUCTIONS TO VISIBILITY.


SDZ038>040-050-052>070-300600-
SOUTHEAST SOUTH DAKOTA

CITY           SKY/WX    TMP DP  RH WIND       PRES   REMARKS
BROOKINGS      CLEAR     61  54  77 SW5       30.03S
CHAMBERLAIN    PTCLDY    67  58  74 E8        29.97F
HURON          CLEAR     64  51  62 S8        29.99F
MADISON        FAIR      61  59  94 SE3       30.04S
MITCHELL       CLOUDY    64  56  75 E6        30.00F
SIOUX FALLS    CLEAR     56  52  86 NE3       30.02F
WINNER         MOCLDY    65  56  72 SE12      29.98S
YANKTON        CLOUDY    66  54  63 E3        29.99S
$$

MNZ071-072-080-081-089-090-097-098-300600-
SOUTHWEST MINNESOTA

CITY           SKY/WX    TMP DP  RH WIND       PRES   REMARKS
FAIRMONT       CLEAR     63  52  67 SW3       30.02F
JACKSON        CLEAR     61  52  72 CALM      30.04F
LUVERNE        CLEAR     59  54  82 CALM      30.04S
MARSHALL       CLEAR     61  52  72 SW9       30.02R
MONTEVIDEO     CLEAR     61  48  63 CALM      30.02R
PIPESTONE      CLEAR     64  48  55 CALM      30.04S
REDWOOD FALLS  CLEAR     61  50  67 CALM      30.00R
TRACY          CLEAR     63  54  72 SW6       30.03S
WINDOM         CLEAR     61  52  72 CALM      30.03S
WORTHINGTON    CLEAR     62  54  74 SW5       30.05S
$$

IAZ001>003-012>014-020>022-031-032-NEZ013-014-SDZ071-300600-
NORTHWEST IOWA

CITY           SKY/WX    TMP DP  RH WIND       PRES   REMARKS
CHEROKEE       CLOUDY    59  57  95 CALM      30.02F
DENISON        CLOUDY    66  57  72 CALM      30.01S
ESTHERVILLE    CLEAR     59  54  83 SW5       30.03F
LE MARS        CLOUDY    63  59  88 CALM      30.02F HAZE
ORANGE CITY    CLOUDY    68  54  60 NE5       30.02F
SHELDON        CLEAR     61  57  88 E3        30.02F
SIOUX CITY     CLOUDY    70  54  56 E8        30.00F
SPENCER        CLEAR     59  53  80 S3        30.04F
STORM LAKE     CLOUDY    66  54  63 NE7       30.04S
$$

ABBREVIATIONS USED IN REMARKS
   TC - TEMPERATURE IN CELSIUS
  WCI - WIND CHILL INDEX
   HX - HEAT INDEX
  VSB - VISIBILITY




USA.gov is the U.S. government's official web portal to all federal, state and local government web resources and services.